Regional Weather Roundup
Issued by NWS

Home | Current Version | Previous Version | Graphics & Text | Print | Product List | Glossary Off
Versions: 1 2 3 4 5 6 7 8 9 10 11 12 13 14 15 16 17 18 19 20 21 22 23 24 25 26 27 28 29 30 31 32 33 34 35 36 37 38 39 40 41 42 43 44 45 46 47 48 49 50

000
ASUS43 KDTX 181310
RWRMI
MICHIGAN HOURLY REGIONAL WEATHER ROUNDUP
NATIONAL WEATHER SERVICE DETROIT/PONTIAC MI
900 AM EDT WED OCT 18 2017

NOTE: "FAIR" INDICATES FEW OR NO CLOUDS BELOW 12,000 FEET WITH NO
SIGNIFICANT WEATHER AND/OR OBSTRUCTION TO VISIBILITY.

MIZ047>049-052>055-059>063-066>070-074>076-081>083-181400-
SOUTHEAST LOWER MICHIGAN

CITY           SKY/WX    TMP DP  RH WIND       PRES   REMARKS
ADRIAN         SUNNY     45  40  82 SW7       30.26S
ALMA           SUNNY     47  41  77 SW6       30.18R
ANN ARBOR      SUNNY     43  41  93 CALM      30.24S
BAD AXE        SUNNY     50  42  72 S5        30.19R
CARO           SUNNY     50  40  68 S7        30.19R
DETROIT CITY   SUNNY     51  41  68 SW7       30.26R
DETROIT        SUNNY     48  41  76 S8        30.26S
FLINT          SUNNY     52  40  63 S9        30.22R
GROSSE ILE     SUNNY     51  41  70 SW7       30.26R
HILLSDALE      SUNNY     45  37  76 S5        30.23S
HOWELL         SUNNY     50  41  72 S5        30.22R

CITY           SKY/WX    TMP DP  RH WIND       PRES   REMARKS
JACKSON        SUNNY     51  40  65 S9        30.22S
LAMBERTVILLE   SUNNY     49  41  73 SW6       30.26S
LANSING        SUNNY     51  39  63 S7        30.21R
LAPEER         FAIR      50  42  73 SW6       30.22R
MASON          SUNNY     50  41  72 SE3       30.22R
MONROE         SUNNY     49  40  73 S5        30.26R
MT. CLEMENS    SUNNY     52  44  72 SW8       30.23R
PONTIAC        SUNNY     49  42  77 VRB5      30.23R
PORT HOPE        N/A     54  41  61 SW7       30.16R
PORT HURON     SUNNY     54  43  66 SW3       30.24R
TRI CITIES     SUNNY     50  42  74 S9        30.19R
MIDLAND        FAIR      48  42  80 S3        30.17R
TROY           SUNNY     48  42  78 SW7       30.26S
SAGINAW HB     SUNNY     48  41  76 S7        30.18R
$$
MIZ043>046-050>051-056>058-064>065-071>073-077>080-181400-
SOUTHWEST LOWER MICHIGAN

CITY           SKY/WX    TMP DP  RH WIND       PRES   REMARKS
BATTLE CREEK   SUNNY     49  41  74 S10       30.21S
BENTON HARBOR  CLEAR     50  40  68 S7        30.19S
BIG RAPIDS     CLEAR     46  44  94 CALM      30.14R
COLDWATER      SUNNY     49  40  70 SW6       30.23R
FREMONT        FAIR      48  47  99 S6        30.15R
HOLLAND        CLEAR     49  41  74 S9        30.18R
GRAND RAPIDS   PTCLDY    52  42  69 S14       30.18R
IONIA          FAIR      50  40  68 S10       30.18R
KALAMAZOO      CLEAR     47  40  76 S8        30.21S
LUDINGTON      CLEAR     58  50  73 S10G17    30.10S
MARSHALL       SUNNY     48  40  72 S6        30.22R
MOUNT PLEASANT CLEAR     51  43  74 S5        30.16R
MUSKEGON       CLEAR     60  50  69 S15       30.15R
SOUTH HAVEN    CLEAR     51  41  68 S7        30.19R
$$
MIZ016>042-181400-
NORTHERN LOWER MICHIGAN

CITY           SKY/WX    TMP DP  RH WIND       PRES   REMARKS
ALPENA         SUNNY     52  48  86 SW7       30.10S
BEAVER ISLAND  CLEAR     58  52  80 S13G20    30.01S
BELLAIRE       CLEAR     49  48  95 CALM      30.08S
CADILLAC       CLEAR     53  47  80 S7        30.11S
CHARLEVOIX     CLEAR     56  48  75 S12G18    30.07S
FRANKFORT      CLEAR     57  49  74 S8        30.07S
GAYLORD        CLEAR     50  44  80 SW8       30.08S
GRAYLING       CLEAR     51  44  77 SW6       30.11S
HARBOR SPRINGS CLEAR     54  47  75 CALM      30.04S
HOUGHTON LAKE  CLEAR     51  47  86 SW8       30.13R
MANISTEE       CLEAR     49  47  93 NE3       30.09S
OSCODA         SUNNY     50  43  76 SW9       30.14R
PELLSTON       CLEAR     53  47  79 SE5       30.05R
ROGERS CITY    CLEAR     51  45  80 SW9       30.07S
TRAVERSE CITY  PTCLDY    56  47  71 SW7G18    30.06S
$$
MIZ007>008-015-181400-
EASTERN UPPER MICHIGAN

CITY           SKY/WX    TMP DP  RH WIND       PRES   REMARKS
KINROSS        CLEAR     52  49  89 S7        30.01F
MACKINAC ISLAN CLEAR     56  48  74 S8        30.02S
NEWBERRY       CLEAR     54  53  97 S12       29.96F
S. S. MARIE    PTCLDY    50  49  96 E3        30.00F
MUNISING         N/A     51  47  86 S10       29.90F
$$
MIZ004>006-011>014-085-181400-
CENTRAL UPPER MICHIGAN

CITY           SKY/WX    TMP DP  RH WIND       PRES   REMARKS
MANISTIQUE     CLEAR     56  51  81 S9G17     29.97F
ESCANABA       CLEAR     52  45  77 SW12      29.96S
MENOMINEE      PTCLDY    53  45  74 SW12      29.98F
SAWYER-GWINN   CLEAR     43  41  93 S8        29.91F
$$
MIZ001>003-009>011-084-181400-
WESTERN UPPER MICHIGAN

CITY           SKY/WX    TMP DP  RH WIND       PRES   REMARKS
IRON MOUNTAIN  CLEAR     46  41  82 SE6       29.92F
HOUGHTON       CLEAR     52  43  71 S7        29.78F
COPPER HARBOR    N/A     55  44  66 SW12G21   29.76F
IRONWOOD       CLEAR     53  44  71 S8G18     29.80F
$$

ABBREVIATIONS USED IN REMARKS
   TC - TEMPERATURE IN CELSIUS
  WCI - WIND CHILL INDEX
   HX - HEAT INDEX
  VSB - VISIBILITY




USA.gov is the U.S. government's official web portal to all federal, state and local government web resources and services.